SWA3952 KTPA-MUHA

Flight info

Callsign SWA3952
Flight time 1h 3m
Altitude 33000
Route GANDY8 SABEE DCT KARTR DCT LULLS Y196 CANOA ENTRY5
Aircraft B737/M-SADE2E3GIJ4RWZ/LB1D1

Departure

Time 2026-05-05 05:11
Airport Tampa International Airport (KTPA)

Arrival

Time 2026-05-05 06:14
Airport José Martí International Airport (MUHA)
Time Latitude Longitude Altitude Speed Heading
2026-05-05 04:49 27.97579 -82.53175 40 ft 0 kts 291°
2026-05-05 05:02 27.97578 -82.53172 40 ft 1 kts 291°
2026-05-05 05:02 27.97576 -82.53168 40 ft 1 kts 291°
2026-05-05 05:02 27.97574 -82.53162 40 ft 1 kts 291°
2026-05-05 05:02 27.97571 -82.53152 40 ft 2 kts 290°
2026-05-05 05:03 27.97571 -82.53138 40 ft 2 kts 248°
2026-05-05 05:03 27.97576 -82.53123 40 ft 2 kts 248°
2026-05-05 05:03 27.97581 -82.53109 37 ft 2 kts 247°
2026-05-05 05:03 27.97586 -82.53094 37 ft 2 kts 246°
2026-05-05 05:04 27.97592 -82.53081 40 ft 1 kts 189°
2026-05-05 05:04 27.97597 -82.53081 37 ft 0 kts 167°
2026-05-05 05:06 27.97539 -82.53034 39 ft 15 kts 120°
2026-05-05 05:07 27.97455 -82.52989 38 ft 14 kts 181°
2026-05-05 05:07 27.97355 -82.52991 37 ft 15 kts 181°
2026-05-05 05:07 27.97246 -82.52993 37 ft 15 kts 181°
2026-05-05 05:07 27.97141 -82.52996 36 ft 15 kts 182°
2026-05-05 05:08 27.97015 -82.53001 35 ft 20 kts 182°
2026-05-05 05:08 27.96876 -82.53006 36 ft 20 kts 182°
2026-05-05 05:08 27.96741 -82.53011 38 ft 19 kts 182°
2026-05-05 05:08 27.96611 -82.53016 39 ft 18 kts 182°
2026-05-05 05:09 27.96485 -82.53018 42 ft 18 kts 169°
2026-05-05 05:09 27.96465 -82.53008 42 ft 0 kts 147°
2026-05-05 05:10 27.96442 -82.52938 43 ft 11 kts 78°
2026-05-05 05:10 27.96504 -82.52896 40 ft 5 kts
2026-05-05 05:10 27.96548 -82.52895 40 ft 30 kts
2026-05-05 05:10 27.97018 -82.52879 36 ft 105 kts
2026-05-05 05:11 27.97950 -82.52796 92 ft 158 kts
2026-05-05 05:11 27.99128 -82.52755 562 ft 181 kts
2026-05-05 05:11 28.00383 -82.53082 1155 ft 186 kts 337°
2026-05-05 05:11 28.01231 -82.54184 1428 ft 203 kts 289°
2026-05-05 05:12 28.01133 -82.55881 1699 ft 236 kts 245°
2026-05-05 05:12 27.99989 -82.57309 1955 ft 261 kts 209°
2026-05-05 05:12 27.98254 -82.58008 2573 ft 269 kts 182°
2026-05-05 05:12 27.96401 -82.57953 3581 ft 265 kts 174°
2026-05-05 05:13 27.94531 -82.57801 4369 ft 274 kts 175°
2026-05-05 05:13 27.92614 -82.57678 5263 ft 279 kts 178°
2026-05-05 05:13 27.90653 -82.57593 6119 ft 283 kts 180°
2026-05-05 05:13 27.88672 -82.57538 7016 ft 286 kts 181°
2026-05-05 05:14 27.86685 -82.57501 7987 ft 286 kts 182°
2026-05-05 05:14 27.84696 -82.57476 9009 ft 286 kts 183°
2026-05-05 05:14 27.82702 -82.57459 10010 ft 288 kts 182°
2026-05-05 05:14 27.80686 -82.57444 10861 ft 293 kts 182°
2026-05-05 05:15 27.78625 -82.57430 11707 ft 298 kts 182°
2026-05-05 05:15 27.76537 -82.57174 12536 ft 307 kts 170°
2026-05-05 05:15 27.74494 -82.56411 13399 ft 315 kts 161°
2026-05-05 05:15 27.72460 -82.55445 14233 ft 321 kts 160°
2026-05-05 05:16 27.70421 -82.54445 15021 ft 326 kts 160°
2026-05-05 05:16 27.68331 -82.53424 15840 ft 330 kts 160°
2026-05-05 05:16 27.66200 -82.52394 16648 ft 335 kts 161°
2026-05-05 05:16 27.64031 -82.51355 17453 ft 341 kts 161°
2026-05-05 05:17 27.61827 -82.50308 18238 ft 346 kts 162°
2026-05-05 05:17 27.59588 -82.49247 18948 ft 351 kts 162°
2026-05-05 05:17 27.57327 -82.48176 19668 ft 355 kts 162°
2026-05-05 05:17 27.55066 -82.46981 20383 ft 362 kts 158°
2026-05-05 05:18 27.52823 -82.45640 21098 ft 367 kts 157°
2026-05-05 05:18 27.50564 -82.44246 21798 ft 372 kts 157°
2026-05-05 05:18 27.48278 -82.42834 22486 ft 377 kts 157°
2026-05-05 05:18 27.45958 -82.41416 23180 ft 382 kts 158°
2026-05-05 05:19 27.43637 -82.40009 23840 ft 386 kts 158°
2026-05-05 05:19 27.41249 -82.38570 24389 ft 392 kts 158°
2026-05-05 05:19 27.38824 -82.37114 24935 ft 397 kts 158°
2026-05-05 05:19 27.36371 -82.35642 25518 ft 401 kts 159°
2026-05-05 05:20 27.33897 -82.34159 26103 ft 405 kts 159°
2026-05-05 05:20 27.31396 -82.32662 26694 ft 409 kts 159°
2026-05-05 05:20 27.28883 -82.31153 27357 ft 409 kts 159°
2026-05-05 05:20 27.26376 -82.29645 28086 ft 408 kts 160°
2026-05-05 05:21 27.23874 -82.28140 28804 ft 407 kts 160°
2026-05-05 05:21 27.21378 -82.26641 29502 ft 407 kts 160°
2026-05-05 05:21 27.18877 -82.25140 30145 ft 408 kts 160°
2026-05-05 05:21 27.16370 -82.23638 30703 ft 408 kts 160°
2026-05-05 05:22 27.13867 -82.22135 31297 ft 407 kts 160°
2026-05-05 05:22 27.11372 -82.20640 31864 ft 406 kts 160°
2026-05-05 05:22 27.08877 -82.19157 32369 ft 405 kts 162°
2026-05-05 05:22 27.06320 -82.17885 32864 ft 400 kts 167°
2026-05-05 05:23 27.03722 -82.16750 33115 ft 406 kts 168°
2026-05-05 05:23 27.01032 -82.15633 33111 ft 417 kts 169°
2026-05-05 05:23 26.98271 -82.14496 33116 ft 429 kts 168°
2026-05-05 05:23 26.95465 -82.13330 33124 ft 440 kts 168°
2026-05-05 05:24 26.92564 -82.12110 33100 ft 450 kts 167°
2026-05-05 05:24 26.86583 -82.09555 33115 ft 469 kts 167°
2026-05-05 05:25 26.80371 -82.06879 33115 ft 486 kts 166°
2026-05-05 05:25 26.73973 -82.04121 33101 ft 497 kts 166°
2026-05-05 05:26 26.67515 -82.01338 33065 ft 498 kts 166°
2026-05-05 05:26 26.61058 -81.98561 33059 ft 493 kts 166°
2026-05-05 05:27 26.54724 -81.95841 33079 ft 487 kts 166°
2026-05-05 05:27 26.45276 -81.91810 33079 ft 489 kts 166°
2026-05-05 05:28 26.38918 -81.89099 33085 ft 490 kts 166°
2026-05-05 05:28 26.32543 -81.86381 33028 ft 490 kts 166°
2026-05-05 05:29 26.26167 -81.83664 33050 ft 490 kts 166°
2026-05-05 05:29 26.19793 -81.80953 33059 ft 490 kts 166°
2026-05-05 05:30 26.13414 -81.78243 33051 ft 490 kts 166°
2026-05-05 05:30 26.07083 -81.75556 33060 ft 490 kts 166°
2026-05-05 05:31 26.00713 -81.72855 33051 ft 489 kts 166°
2026-05-05 05:31 25.94357 -81.70164 33073 ft 488 kts 166°
2026-05-05 05:32 25.88013 -81.67481 33073 ft 487 kts 166°
2026-05-05 05:32 25.81675 -81.64804 33059 ft 487 kts 166°
2026-05-05 05:33 25.75385 -81.62150 33066 ft 486 kts 166°
2026-05-05 05:33 25.69066 -81.59487 33036 ft 485 kts 166°
2026-05-05 05:34 25.62753 -81.56829 33057 ft 484 kts 166°
2026-05-05 05:34 25.56451 -81.54178 33066 ft 484 kts 166°
2026-05-05 05:35 25.50055 -81.52444 33073 ft 463 kts 187°
2026-05-05 05:35 25.46886 -81.52714 33062 ft 451 kts 198°
2026-05-05 05:35 25.43922 -81.53667 33061 ft 439 kts 209°
2026-05-05 05:36 25.38286 -81.56253 33036 ft 439 kts 209°
2026-05-05 05:36 25.32640 -81.58822 33055 ft 439 kts 209°
2026-05-05 05:37 25.26966 -81.61359 33064 ft 440 kts 208°
2026-05-05 05:37 25.21319 -81.63863 33056 ft 440 kts 208°
2026-05-05 05:38 25.15633 -81.66380 33067 ft 441 kts 208°
2026-05-05 05:38 25.09936 -81.68899 33057 ft 441 kts 208°
2026-05-05 05:39 25.04240 -81.71416 33053 ft 441 kts 208°
2026-05-05 05:39 24.98538 -81.73934 33057 ft 441 kts 208°
2026-05-05 05:40 24.92847 -81.76444 33053 ft 441 kts 208°
2026-05-05 05:40 24.87144 -81.78957 33049 ft 441 kts 208°
2026-05-05 05:41 24.81478 -81.81452 33057 ft 441 kts 208°
2026-05-05 05:41 24.75781 -81.83957 33045 ft 440 kts 208°
2026-05-05 05:42 24.70086 -81.86460 33053 ft 440 kts 208°
2026-05-05 05:42 24.64400 -81.88956 33054 ft 440 kts 208°
2026-05-05 05:43 24.58751 -81.91434 33054 ft 440 kts 208°
2026-05-05 05:43 24.53066 -81.93925 33057 ft 439 kts 208°
2026-05-05 05:44 24.50393 -81.95461 33047 ft 428 kts 221°
2026-05-05 05:44 24.48174 -81.97576 33061 ft 420 kts 231°
2026-05-05 05:44 24.46354 -82.00060 33056 ft 414 kts 242°
2026-05-05 05:44 24.45033 -82.02838 33078 ft 410 kts 248°
2026-05-05 05:45 24.42606 -82.08508 33061 ft 411 kts 248°
2026-05-05 05:45 24.40164 -82.14189 33059 ft 411 kts 248°
2026-05-05 05:46 24.37697 -82.19854 33059 ft 411 kts 247°
2026-05-05 05:46 24.35232 -82.25474 33058 ft 412 kts 247°
2026-05-05 05:47 24.32745 -82.31131 33057 ft 412 kts 247°
2026-05-05 05:47 24.30255 -82.36789 33056 ft 412 kts 247°
2026-05-05 05:48 24.27765 -82.42440 33066 ft 412 kts 247°
2026-05-05 05:48 24.25267 -82.48103 33062 ft 412 kts 247°
2026-05-05 05:49 24.22767 -82.53762 33048 ft 412 kts 247°
2026-05-05 05:49 24.20268 -82.59413 33024 ft 412 kts 247°
2026-05-05 05:50 24.17768 -82.65059 33051 ft 412 kts 247°
2026-05-05 05:50 24.15282 -82.70667 33063 ft 412 kts 247°
2026-05-05 05:51 24.12779 -82.76307 33059 ft 412 kts 247°
2026-05-05 05:51 24.10265 -82.81965 33060 ft 412 kts 247°
2026-05-05 05:52 24.07756 -82.87607 33058 ft 413 kts 247°
2026-05-05 05:52 24.05239 -82.93260 32755 ft 417 kts 247°
2026-05-05 05:53 24.03961 -82.96128 32016 ft 418 kts 247°
2026-05-05 05:53 24.03069 -82.98003 31478 ft 421 kts 241°
2026-05-05 05:53 24.01161 -83.00450 30907 ft 425 kts 226°
2026-05-05 05:53 23.97837 -83.02769 30017 ft 435 kts 210°
2026-05-05 05:54 23.94909 -83.03770 29108 ft 448 kts 197°
2026-05-05 05:54 23.91773 -83.03950 28442 ft 457 kts 181°
2026-05-05 05:54 23.89677 -83.03713 28013 ft 455 kts 179°
2026-05-05 05:54 23.86542 -83.03251 27369 ft 453 kts 178°
2026-05-05 05:55 23.83438 -83.02744 26742 ft 450 kts 177°
2026-05-05 05:55 23.80354 -83.02238 26123 ft 446 kts 177°
2026-05-05 05:55 23.77292 -83.01752 25500 ft 443 kts 178°
2026-05-05 05:55 23.74241 -83.01287 24867 ft 441 kts 178°
2026-05-05 05:56 23.71202 -83.00838 24241 ft 439 kts 178°
2026-05-05 05:56 23.68172 -83.00399 23604 ft 438 kts 178°
2026-05-05 05:56 23.65157 -82.99967 22878 ft 434 kts 178°
2026-05-05 05:56 23.62212 -82.99542 22224 ft 421 kts 178°
2026-05-05 05:57 23.59345 -82.99128 21626 ft 413 kts 178°
2026-05-05 05:57 23.56501 -82.98721 21021 ft 411 kts 178°
2026-05-05 05:57 23.53675 -82.98318 20428 ft 406 kts 178°
2026-05-05 05:57 23.50894 -82.97920 19852 ft 401 kts 178°
2026-05-05 05:58 23.48167 -82.97531 19268 ft 400 kts 177°
2026-05-05 05:58 23.45407 -82.97138 18675 ft 399 kts 177°
2026-05-05 05:58 23.42653 -82.96745 18030 ft 398 kts 177°
2026-05-05 05:58 23.39915 -82.96353 17392 ft 396 kts 177°
2026-05-05 05:59 23.37188 -82.95963 16780 ft 393 kts 177°
2026-05-05 05:59 23.34478 -82.95575 16184 ft 390 kts 177°
2026-05-05 05:59 23.31797 -82.95191 15598 ft 388 kts 177°
2026-05-05 05:59 23.29127 -82.94810 15014 ft 385 kts 177°
2026-05-05 06:00 23.26473 -82.94431 14408 ft 383 kts 176°
2026-05-05 06:00 23.23837 -82.94055 13823 ft 378 kts 176°
2026-05-05 06:00 23.21270 -82.93686 13175 ft 366 kts 176°
2026-05-05 06:00 23.18788 -82.93331 12589 ft 353 kts 176°
2026-05-05 06:01 23.16383 -82.92988 12043 ft 346 kts 176°
2026-05-05 06:01 23.14022 -82.92654 11519 ft 346 kts 176°
2026-05-05 06:01 23.11633 -82.92315 10966 ft 346 kts 175°
2026-05-05 06:01 23.09277 -82.91972 10593 ft 332 kts 174°
2026-05-05 06:02 23.07078 -82.91424 10482 ft 314 kts 167°
2026-05-05 06:02 23.05029 -82.90734 10374 ft 306 kts 165°
2026-05-05 06:02 23.03011 -82.90027 10255 ft 302 kts 165°
2026-05-05 06:02 23.01035 -82.89343 10122 ft 291 kts 165°
2026-05-05 06:03 22.99163 -82.88706 9935 ft 275 kts 166°
2026-05-05 06:03 22.97339 -82.88098 9626 ft 273 kts 166°
2026-05-05 06:03 22.95527 -82.87501 9283 ft 272 kts 166°
2026-05-05 06:03 22.93720 -82.86908 8934 ft 271 kts 166°
2026-05-05 06:04 22.91942 -82.86326 8605 ft 270 kts 166°
2026-05-05 06:04 22.90147 -82.85740 8264 ft 269 kts 166°
2026-05-05 06:04 22.88358 -82.85157 7919 ft 268 kts 166°
2026-05-05 06:04 22.86566 -82.84573 7584 ft 268 kts 166°
2026-05-05 06:05 22.84784 -82.83993 7251 ft 268 kts 166°
2026-05-05 06:05 22.83092 -82.83158 6882 ft 272 kts 142°
2026-05-05 06:05 22.81975 -82.81547 6715 ft 264 kts 112°
2026-05-05 06:05 22.81698 -82.79654 6614 ft 247 kts 86°
2026-05-05 06:06 22.82031 -82.77899 6522 ft 230 kts 73°
2026-05-05 06:06 22.82479 -82.76299 6409 ft 214 kts 72°
2026-05-05 06:06 22.82909 -82.74805 6281 ft 201 kts 72°
2026-05-05 06:06 22.83310 -82.73409 6153 ft 189 kts 72°
2026-05-05 06:07 22.83694 -82.72062 5868 ft 186 kts 72°
2026-05-05 06:07 22.84071 -82.70730 5568 ft 184 kts 72°
2026-05-05 06:07 22.84439 -82.69424 5288 ft 183 kts 72°
2026-05-05 06:07 22.84812 -82.68096 4988 ft 181 kts 72°
2026-05-05 06:08 22.85171 -82.66812 4696 ft 180 kts 72°
2026-05-05 06:08 22.85532 -82.65518 4406 ft 178 kts 72°
2026-05-05 06:08 22.85890 -82.64233 4120 ft 177 kts 72°
2026-05-05 06:08 22.86238 -82.62977 3948 ft 172 kts 72°
2026-05-05 06:09 22.86583 -82.61738 3871 ft 172 kts 72°
2026-05-05 06:09 22.86932 -82.60480 3806 ft 177 kts 72°
2026-05-05 06:09 22.87290 -82.59190 3684 ft 181 kts 72°
2026-05-05 06:09 22.87670 -82.57886 3467 ft 180 kts 65°
2026-05-05 06:10 22.88343 -82.56776 3272 ft 173 kts 52°
2026-05-05 06:10 22.89052 -82.55731 3084 ft 172 kts 53°
2026-05-05 06:10 22.89759 -82.54679 2906 ft 174 kts 53°
2026-05-05 06:10 22.90483 -82.53608 2653 ft 176 kts 52°
2026-05-05 06:11 22.91198 -82.52548 2432 ft 173 kts 53°
2026-05-05 06:11 22.91893 -82.51509 2197 ft 165 kts 53°
2026-05-05 06:11 22.92546 -82.50537 2023 ft 158 kts 53°
2026-05-05 06:11 22.93191 -82.49578 1764 ft 151 kts 53°
2026-05-05 06:12 22.93786 -82.48680 1530 ft 142 kts 53°
2026-05-05 06:12 22.94361 -82.47808 1354 ft 143 kts 53°
2026-05-05 06:12 22.94938 -82.46933 1174 ft 142 kts 52°
2026-05-05 06:12 22.95507 -82.46070 1000 ft 139 kts 53°
2026-05-05 06:13 22.96061 -82.45229 827 ft 138 kts 53°
2026-05-05 06:13 22.96615 -82.44389 666 ft 136 kts 53°
2026-05-05 06:13 22.97166 -82.43553 496 ft 134 kts 53°
2026-05-05 06:13 22.97701 -82.42749 298 ft 129 kts 53°
2026-05-05 06:14 22.98201 -82.41992 201 ft 117 kts 54°
2026-05-05 06:14 22.98594 -82.41407 204 ft 74 kts 54°
2026-05-05 06:14 22.98793 -82.41117 201 ft 31 kts 38°
2026-05-05 06:14 22.98927 -82.41081 207 ft 0 kts
2026-05-05 06:15 22.98928 -82.41081 207 ft 1 kts
2026-05-05 06:15 22.99013 -82.41060 201 ft 22 kts 25°
2026-05-05 06:16 22.99112 -82.40934 198 ft 22 kts 55°
2026-05-05 06:16 22.99200 -82.40800 205 ft 21 kts 46°
2026-05-05 06:16 22.99296 -82.40807 203 ft 12 kts 324°
2026-05-05 06:16 22.99367 -82.40839 206 ft 12 kts 26°
2026-05-05 06:17 22.99429 -82.40762 204 ft 15 kts 53°
2026-05-05 06:17 22.99491 -82.40672 198 ft 15 kts 53°
2026-05-05 06:17 22.99551 -82.40586 202 ft 14 kts 43°
2026-05-05 06:17 22.99625 -82.40622 205 ft 13 kts 302°
2026-05-05 06:18 22.99632 -82.40634 203 ft 0 kts 301°